Year,Month,Day,Hour,Minute,Value (Times are PST for temperature in C)
2008,04,12,00,00,6.50
2008,04,12,00,01,6.50
2008,04,12,00,02,6.50
2008,04,12,00,03,6.50
2008,04,12,00,04,6.50
2008,04,12,00,05,6.50
2008,04,12,00,06,6.50
2008,04,12,00,07,6.50
2008,04,12,00,08,6.60
2008,04,12,00,09,6.60
2008,04,12,00,10,6.60
2008,04,12,00,11,6.60
2008,04,12,00,12,6.60
2008,04,12,00,13,6.60
2008,04,12,00,14,6.60
2008,04,12,00,15,6.60
2008,04,12,00,16,6.60
2008,04,12,00,17,6.60
2008,04,12,00,18,6.60
2008,04,12,00,19,6.60
2008,04,12,00,20,6.60
2008,04,12,00,21,6.60
2008,04,12,00,22,6.60
2008,04,12,00,23,6.70
2008,04,12,00,24,6.70
2008,04,12,00,25,6.70
2008,04,12,00,26,6.80
2008,04,12,00,27,6.80
2008,04,12,00,28,6.80
2008,04,12,00,29,6.80
2008,04,12,00,30,6.90
2008,04,12,00,31,6.90
2008,04,12,00,32,6.90
2008,04,12,00,33,6.90
2008,04,12,00,34,6.90
2008,04,12,00,35,6.90
2008,04,12,00,36,7.00
2008,04,12,00,37,7.00
2008,04,12,00,38,7.00
2008,04,12,00,39,7.00
2008,04,12,00,40,7.00
2008,04,12,00,41,7.10
2008,04,12,00,42,7.10
2008,04,12,00,43,7.20
2008,04,12,00,44,7.20
2008,04,12,00,45,7.20
2008,04,12,00,46,7.20
2008,04,12,00,47,7.20
2008,04,12,00,48,7.20
2008,04,12,00,49,7.20
2008,04,12,00,50,7.20
2008,04,12,00,51,7.20
2008,04,12,00,52,7.20
2008,04,12,00,53,7.20
2008,04,12,00,54,7.20
2008,04,12,00,55,7.20
2008,04,12,00,56,7.20
2008,04,12,00,57,7.10
2008,04,12,00,58,7.10
2008,04,12,00,59,7.10
2008,04,12,01,00,7.00
2008,04,12,01,01,7.00
2008,04,12,01,02,7.00
2008,04,12,01,03,6.90
2008,04,12,01,04,6.90
2008,04,12,01,05,6.90
2008,04,12,01,06,6.90
2008,04,12,01,07,6.80
2008,04,12,01,08,6.80
2008,04,12,01,09,6.80
2008,04,12,01,10,6.80
2008,04,12,01,11,6.80
2008,04,12,01,12,6.80
2008,04,12,01,13,6.90
2008,04,12,01,14,6.90
2008,04,12,01,15,6.90
2008,04,12,01,16,6.90
2008,04,12,01,17,6.90
2008,04,12,01,18,6.90
2008,04,12,01,19,6.90
2008,04,12,01,20,6.90
2008,04,12,01,21,6.90
2008,04,12,01,22,6.90
2008,04,12,01,23,6.90
2008,04,12,01,24,6.90
2008,04,12,01,25,6.90
2008,04,12,01,26,6.90
2008,04,12,01,27,6.90
2008,04,12,01,28,6.90
2008,04,12,01,29,6.90
2008,04,12,01,30,6.90
2008,04,12,01,31,6.90
2008,04,12,01,32,6.90
2008,04,12,01,33,6.90
2008,04,12,01,34,6.90
2008,04,12,01,35,6.90
2008,04,12,01,36,6.90
2008,04,12,01,37,6.80
2008,04,12,01,38,6.80
2008,04,12,01,39,6.80
2008,04,12,01,40,6.80
2008,04,12,01,41,6.80
2008,04,12,01,42,6.80
2008,04,12,01,43,6.80
2008,04,12,01,44,6.80
2008,04,12,01,45,6.80
2008,04,12,01,46,6.80
2008,04,12,01,47,6.80
2008,04,12,01,48,6.80
2008,04,12,01,49,6.80
2008,04,12,01,50,6.80
2008,04,12,01,51,6.80
2008,04,12,01,52,6.80
2008,04,12,01,53,6.90
2008,04,12,01,54,6.90
2008,04,12,01,55,7.00
2008,04,12,01,56,7.00
2008,04,12,01,57,7.10
2008,04,12,01,58,7.10
2008,04,12,01,59,7.20
2008,04,12,02,00,7.20
2008,04,12,02,01,7.20
2008,04,12,02,02,7.20
2008,04,12,02,03,7.30
2008,04,12,02,04,7.30
2008,04,12,02,05,7.30
2008,04,12,02,06,7.30
2008,04,12,02,07,7.40
2008,04,12,02,08,7.40
2008,04,12,02,09,7.40
2008,04,12,02,10,7.40
2008,04,12,02,11,7.40
2008,04,12,02,12,7.40
2008,04,12,02,13,7.40
2008,04,12,02,14,7.40
2008,04,12,02,15,7.40
2008,04,12,02,16,7.40
2008,04,12,02,17,7.40
2008,04,12,02,18,7.40
2008,04,12,02,19,7.40
2008,04,12,02,20,7.40
2008,04,12,02,21,7.40
2008,04,12,02,22,7.40
2008,04,12,02,23,7.50
2008,04,12,02,24,7.40
2008,04,12,02,25,7.40
2008,04,12,02,26,7.50
2008,04,12,02,27,7.50
2008,04,12,02,28,7.50
2008,04,12,02,29,7.40
2008,04,12,02,30,7.40
2008,04,12,02,31,7.40
2008,04,12,02,32,7.40
2008,04,12,02,33,7.40
2008,04,12,02,34,7.40
2008,04,12,02,35,7.30
2008,04,12,02,36,7.30
2008,04,12,02,37,7.30
2008,04,12,02,38,7.30
2008,04,12,02,39,7.30
2008,04,12,02,40,7.30
2008,04,12,02,41,7.30
2008,04,12,02,42,7.20
2008,04,12,02,43,7.20
2008,04,12,02,44,7.20
2008,04,12,02,45,7.20
2008,04,12,02,46,7.30
2008,04,12,02,47,7.30
2008,04,12,02,48,7.40
2008,04,12,02,49,7.40
2008,04,12,02,50,7.40
2008,04,12,02,51,7.40
2008,04,12,02,52,7.40
2008,04,12,02,53,7.50
2008,04,12,02,54,7.50
2008,04,12,02,55,7.60
2008,04,12,02,56,7.60
2008,04,12,02,57,7.70
2008,04,12,02,58,7.70
2008,04,12,02,59,7.70
2008,04,12,03,00,7.70
2008,04,12,03,01,7.60
2008,04,12,03,02,7.70
2008,04,12,03,03,7.60
2008,04,12,03,04,7.70
2008,04,12,03,05,7.70
2008,04,12,03,06,7.70
2008,04,12,03,07,7.70
2008,04,12,03,08,7.70
2008,04,12,03,09,7.70
2008,04,12,03,10,7.70
2008,04,12,03,11,7.70
2008,04,12,03,12,7.70
2008,04,12,03,13,7.70
2008,04,12,03,14,7.70
2008,04,12,03,15,7.80
2008,04,12,03,16,7.80
2008,04,12,03,17,7.80
2008,04,12,03,18,7.80
2008,04,12,03,19,7.90
2008,04,12,03,20,7.90
2008,04,12,03,21,7.80
2008,04,12,03,22,7.80
2008,04,12,03,23,7.80
2008,04,12,03,24,7.80
2008,04,12,03,25,7.80
2008,04,12,03,26,7.70
2008,04,12,03,27,7.70
2008,04,12,03,28,7.70
2008,04,12,03,29,7.70
2008,04,12,03,30,7.70
2008,04,12,03,31,7.70
2008,04,12,03,32,7.70
2008,04,12,03,33,7.70
2008,04,12,03,34,7.70
2008,04,12,03,35,7.70
2008,04,12,03,36,7.60
2008,04,12,03,37,7.60
2008,04,12,03,38,7.60
2008,04,12,03,39,7.60
2008,04,12,03,40,7.50
2008,04,12,03,41,7.50
2008,04,12,03,42,7.40
2008,04,12,03,43,7.40
2008,04,12,03,44,7.40
2008,04,12,03,45,7.30
2008,04,12,03,46,7.30
2008,04,12,03,47,7.30
2008,04,12,03,48,7.30
2008,04,12,03,49,7.20
2008,04,12,03,50,7.20
2008,04,12,03,51,7.20
2008,04,12,03,52,7.20
2008,04,12,03,53,7.20
2008,04,12,03,54,7.20
2008,04,12,03,55,7.20
2008,04,12,03,56,7.20
2008,04,12,03,57,7.20
2008,04,12,03,58,7.20
2008,04,12,03,59,7.20
2008,04,12,04,00,7.20
2008,04,12,04,01,7.20
2008,04,12,04,02,7.20
2008,04,12,04,03,7.20
2008,04,12,04,04,7.20
2008,04,12,04,05,7.20
2008,04,12,04,06,7.20
2008,04,12,04,07,7.20
2008,04,12,04,08,7.20
2008,04,12,04,09,7.20
2008,04,12,04,10,7.20
2008,04,12,04,11,7.30
2008,04,12,04,12,7.30
2008,04,12,04,13,7.30
2008,04,12,04,14,7.30
2008,04,12,04,15,7.30
2008,04,12,04,16,7.30
2008,04,12,04,17,7.30
2008,04,12,04,18,7.30
2008,04,12,04,19,7.30
2008,04,12,04,20,7.30
2008,04,12,04,21,7.20
2008,04,12,04,22,7.20
2008,04,12,04,23,7.20
2008,04,12,04,24,7.20
2008,04,12,04,25,7.20
2008,04,12,04,26,7.20
2008,04,12,04,27,7.20
2008,04,12,04,28,7.20
2008,04,12,04,29,7.30
2008,04,12,04,30,7.30
2008,04,12,04,31,7.30
2008,04,12,04,32,7.40
2008,04,12,04,33,7.40
2008,04,12,04,34,7.50
2008,04,12,04,35,7.50
2008,04,12,04,36,7.50
2008,04,12,04,37,7.60
2008,04,12,04,38,7.60
2008,04,12,04,39,7.60
2008,04,12,04,40,7.70
2008,04,12,04,41,7.70
2008,04,12,04,42,7.70
2008,04,12,04,43,7.70
2008,04,12,04,44,7.80
2008,04,12,04,45,7.80
2008,04,12,04,46,7.80
2008,04,12,04,47,7.70
2008,04,12,04,48,7.70
2008,04,12,04,49,7.70
2008,04,12,04,50,7.70
2008,04,12,04,51,7.60
2008,04,12,04,52,7.60
2008,04,12,04,53,7.60
2008,04,12,04,54,7.50
2008,04,12,04,55,7.50
2008,04,12,04,56,7.40
2008,04,12,04,57,7.40
2008,04,12,04,58,7.30
2008,04,12,04,59,7.30
2008,04,12,05,00,7.30
2008,04,12,05,01,7.30
2008,04,12,05,02,7.30
2008,04,12,05,03,7.30
2008,04,12,05,04,7.30
2008,04,12,05,05,7.30
2008,04,12,05,06,7.40
2008,04,12,05,07,7.40
2008,04,12,05,08,7.40
2008,04,12,05,09,7.30
2008,04,12,05,10,7.30
2008,04,12,05,11,7.30
2008,04,12,05,12,7.30
2008,04,12,05,13,7.30
2008,04,12,05,14,7.20
2008,04,12,05,15,7.30
2008,04,12,05,16,7.30
2008,04,12,05,17,7.30
2008,04,12,05,18,7.30
2008,04,12,05,19,7.20
2008,04,12,05,20,7.20
2008,04,12,05,21,7.20
2008,04,12,05,22,7.20
2008,04,12,05,23,7.20
2008,04,12,05,24,7.20
2008,04,12,05,25,7.20
2008,04,12,05,26,7.30
2008,04,12,05,27,7.20
2008,04,12,05,28,7.20
2008,04,12,05,29,7.20
2008,04,12,05,30,7.20
2008,04,12,05,31,7.20
2008,04,12,05,32,7.20
2008,04,12,05,33,7.20
2008,04,12,05,34,7.20
2008,04,12,05,35,7.20
2008,04,12,05,36,7.20
2008,04,12,05,37,7.20
2008,04,12,05,38,7.20
2008,04,12,05,39,7.20
2008,04,12,05,40,7.20
2008,04,12,05,41,7.20
2008,04,12,05,42,7.20
2008,04,12,05,43,7.30
2008,04,12,05,44,7.30
2008,04,12,05,45,7.30
2008,04,12,05,46,7.20
2008,04,12,05,47,7.20
2008,04,12,05,48,7.20
2008,04,12,05,49,7.20
2008,04,12,05,50,7.10
2008,04,12,05,51,7.10
2008,04,12,05,52,7.00
2008,04,12,05,53,7.00
2008,04,12,05,54,7.00
2008,04,12,05,55,7.00
2008,04,12,05,56,7.00
2008,04,12,05,57,7.00
2008,04,12,05,58,7.00
2008,04,12,05,59,7.00
2008,04,12,06,00,7.00
2008,04,12,06,01,7.00
2008,04,12,06,02,7.00
2008,04,12,06,03,7.00
2008,04,12,06,04,7.00
2008,04,12,06,05,7.00
2008,04,12,06,06,7.00
2008,04,12,06,07,7.00
2008,04,12,06,08,6.90
2008,04,12,06,09,6.90
2008,04,12,06,10,6.90
2008,04,12,06,11,6.90
2008,04,12,06,12,7.00
2008,04,12,06,13,7.00
2008,04,12,06,14,7.10
2008,04,12,06,15,7.20
2008,04,12,06,16,7.20
2008,04,12,06,17,7.20
2008,04,12,06,18,7.30
2008,04,12,06,19,7.30
2008,04,12,06,20,7.30
2008,04,12,06,21,7.30
2008,04,12,06,22,7.30
2008,04,12,06,23,7.30
2008,04,12,06,24,7.30
2008,04,12,06,25,7.30
2008,04,12,06,26,7.40
2008,04,12,06,27,7.40
2008,04,12,06,28,7.40
2008,04,12,06,29,7.40
2008,04,12,06,30,7.40
2008,04,12,06,31,7.40
2008,04,12,06,32,7.50
2008,04,12,06,33,7.50
2008,04,12,06,34,7.50
2008,04,12,06,35,7.50
2008,04,12,06,36,7.50
2008,04,12,06,37,7.50
2008,04,12,06,38,7.40
2008,04,12,06,39,7.40
2008,04,12,06,40,7.40
2008,04,12,06,41,7.30
2008,04,12,06,42,7.30
2008,04,12,06,43,7.30
2008,04,12,06,44,7.20
2008,04,12,06,45,7.20
2008,04,12,06,46,7.20
2008,04,12,06,47,7.20
2008,04,12,06,48,7.10
2008,04,12,06,49,7.10
2008,04,12,06,50,7.00
2008,04,12,06,51,7.00
2008,04,12,06,52,6.90
2008,04,12,06,53,6.90
2008,04,12,06,54,6.90
2008,04,12,06,55,6.80
2008,04,12,06,56,6.80
2008,04,12,06,57,6.80
2008,04,12,06,58,6.70
2008,04,12,06,59,6.70
2008,04,12,07,00,6.70
2008,04,12,07,01,6.70
2008,04,12,07,02,6.60
2008,04,12,07,03,6.60
2008,04,12,07,04,6.60
2008,04,12,07,05,6.60
2008,04,12,07,06,6.50
2008,04,12,07,07,6.50
2008,04,12,07,08,6.40
2008,04,12,07,09,6.40
2008,04,12,07,10,6.40
2008,04,12,07,11,6.40
2008,04,12,07,12,6.40
2008,04,12,07,13,6.40
2008,04,12,07,14,6.30
2008,04,12,07,15,6.30
2008,04,12,07,16,6.30
2008,04,12,07,17,6.30
2008,04,12,07,18,6.30
2008,04,12,07,19,6.30
2008,04,12,07,20,6.30
2008,04,12,07,21,6.30
2008,04,12,07,22,6.20
2008,04,12,07,23,6.20
2008,04,12,07,24,6.20
2008,04,12,07,25,6.20
2008,04,12,07,26,6.20
2008,04,12,07,27,6.20
2008,04,12,07,28,6.20
2008,04,12,07,29,6.20
2008,04,12,07,30,6.20
2008,04,12,07,31,6.20
2008,04,12,07,32,6.20
2008,04,12,07,33,6.20
2008,04,12,07,34,6.20
2008,04,12,07,35,6.20
2008,04,12,07,36,6.20
2008,04,12,07,37,6.20
2008,04,12,07,38,6.20
2008,04,12,07,39,6.20
2008,04,12,07,40,6.30
2008,04,12,07,41,6.30
2008,04,12,07,42,6.30
2008,04,12,07,43,6.30
2008,04,12,07,44,6.40
2008,04,12,07,45,6.40
2008,04,12,07,46,6.40
2008,04,12,07,47,6.40
2008,04,12,07,48,6.50
2008,04,12,07,49,6.60
2008,04,12,07,50,6.70
2008,04,12,07,51,6.80
2008,04,12,07,52,6.90
2008,04,12,07,53,7.00
2008,04,12,07,54,7.10
2008,04,12,07,55,7.20
2008,04,12,07,56,7.30
2008,04,12,07,57,7.30
2008,04,12,07,58,7.40
2008,04,12,07,59,7.50
2008,04,12,08,00,7.50
2008,04,12,08,01,7.60
2008,04,12,08,02,7.70
2008,04,12,08,03,7.70
2008,04,12,08,04,7.80
2008,04,12,08,05,7.90
2008,04,12,08,06,7.90
2008,04,12,08,07,8.00
2008,04,12,08,08,8.20
2008,04,12,08,09,8.30
2008,04,12,08,10,8.40
2008,04,12,08,11,8.40
2008,04,12,08,12,8.50
2008,04,12,08,13,8.60
2008,04,12,08,14,8.70
2008,04,12,08,15,8.80
2008,04,12,08,16,8.90
2008,04,12,08,17,8.90
2008,04,12,08,18,9.00
2008,04,12,08,19,9.10
2008,04,12,08,20,9.10
2008,04,12,08,21,9.20
2008,04,12,08,22,9.30
2008,04,12,08,23,9.30
2008,04,12,08,24,9.40
2008,04,12,08,25,9.50
2008,04,12,08,26,9.60
2008,04,12,08,27,9.60
2008,04,12,08,28,9.70
2008,04,12,08,29,9.80
2008,04,12,08,30,9.90
2008,04,12,08,31,10.00
2008,04,12,08,32,10.20
2008,04,12,08,33,10.20
2008,04,12,08,34,10.30
2008,04,12,08,35,10.40
2008,04,12,08,36,10.40
2008,04,12,08,37,10.50
2008,04,12,08,38,10.60
2008,04,12,08,39,10.70
2008,04,12,08,40,10.80
2008,04,12,08,41,10.80
2008,04,12,08,42,10.90
2008,04,12,08,43,10.90
2008,04,12,08,44,10.90
2008,04,12,08,45,11.00
2008,04,12,08,46,11.00
2008,04,12,08,47,11.00
2008,04,12,08,48,11.00
2008,04,12,08,49,10.90
2008,04,12,08,50,10.90
2008,04,12,08,51,10.90
2008,04,12,08,52,10.90
2008,04,12,08,53,10.80
2008,04,12,08,54,10.80
2008,04,12,08,55,10.80
2008,04,12,08,56,10.80
2008,04,12,08,57,10.80
2008,04,12,08,58,10.70
2008,04,12,08,59,10.70
2008,04,12,09,00,10.70
2008,04,12,09,01,10.70
2008,04,12,09,02,10.70
2008,04,12,09,03,10.70
2008,04,12,09,04,10.70
2008,04,12,09,05,10.70
2008,04,12,09,06,10.70
2008,04,12,09,07,10.70
2008,04,12,09,08,10.70
2008,04,12,09,09,10.80
2008,04,12,09,10,10.80
2008,04,12,09,11,10.80
2008,04,12,09,12,10.80
2008,04,12,09,13,10.90
2008,04,12,09,14,10.90
2008,04,12,09,15,10.90
2008,04,12,09,16,10.90
2008,04,12,09,17,11.00
2008,04,12,09,18,11.00
2008,04,12,09,19,11.00
2008,04,12,09,20,11.00
2008,04,12,09,21,11.00
2008,04,12,09,22,11.00
2008,04,12,09,23,11.00
2008,04,12,09,24,11.00
2008,04,12,09,25,11.00
2008,04,12,09,26,11.00
2008,04,12,09,27,11.00
2008,04,12,09,28,11.00
2008,04,12,09,29,11.00
2008,04,12,09,30,11.00
2008,04,12,09,31,11.00
2008,04,12,09,32,11.10
2008,04,12,09,33,11.10
2008,04,12,09,34,11.10
2008,04,12,09,35,11.10
2008,04,12,09,36,11.10
2008,04,12,09,37,11.20
2008,04,12,09,38,11.20
2008,04,12,09,39,11.20
2008,04,12,09,40,11.20
2008,04,12,09,41,11.30
2008,04,12,09,42,11.30
2008,04,12,09,43,11.30
2008,04,12,09,44,11.40
2008,04,12,09,45,11.40
2008,04,12,09,46,11.40
2008,04,12,09,47,11.50
2008,04,12,09,48,11.50
2008,04,12,09,49,11.50
2008,04,12,09,50,11.60
2008,04,12,09,51,11.60
2008,04,12,09,52,11.60
2008,04,12,09,53,11.70
2008,04,12,09,54,11.70
2008,04,12,09,55,11.70
2008,04,12,09,56,11.80
2008,04,12,09,57,11.80
2008,04,12,09,58,11.90
2008,04,12,09,59,11.90
2008,04,12,10,00,11.90
2008,04,12,10,01,12.00
2008,04,12,10,02,12.00
2008,04,12,10,03,12.10
2008,04,12,10,04,12.10
2008,04,12,10,05,12.10
2008,04,12,10,06,12.10
2008,04,12,10,07,12.10
2008,04,12,10,08,12.00
2008,04,12,10,09,12.00
2008,04,12,10,10,12.00
2008,04,12,10,11,12.00
2008,04,12,10,12,12.00
2008,04,12,10,13,12.10
2008,04,12,10,14,12.10
2008,04,12,10,15,12.10
2008,04,12,10,16,12.10
2008,04,12,10,17,12.10
2008,04,12,10,18,12.10
2008,04,12,10,19,12.10
2008,04,12,10,20,12.00
2008,04,12,10,21,12.00
2008,04,12,10,22,12.00
2008,04,12,10,23,11.90
2008,04,12,10,24,11.90
2008,04,12,10,25,11.90
2008,04,12,10,26,11.80
2008,04,12,10,27,11.80
2008,04,12,10,28,11.80
2008,04,12,10,29,11.80
2008,04,12,10,30,11.80
2008,04,12,10,31,11.80
2008,04,12,10,32,11.90
2008,04,12,10,33,11.90
2008,04,12,10,34,11.90
2008,04,12,10,35,11.90
2008,04,12,10,36,12.00
2008,04,12,10,37,12.00
2008,04,12,10,38,12.00
2008,04,12,10,39,12.00
2008,04,12,10,40,12.10
2008,04,12,10,41,12.10
2008,04,12,10,42,12.10
2008,04,12,10,43,12.00
2008,04,12,10,44,12.00
2008,04,12,10,45,11.90
2008,04,12,10,46,11.90
2008,04,12,10,47,11.90
2008,04,12,10,48,11.80
2008,04,12,10,49,11.80
2008,04,12,10,50,11.80
2008,04,12,10,51,11.80
2008,04,12,10,52,11.90
2008,04,12,10,53,11.90
2008,04,12,10,54,11.90
2008,04,12,10,55,12.00
2008,04,12,10,56,12.00
2008,04,12,10,57,12.00
2008,04,12,10,58,12.00
2008,04,12,10,59,12.10
2008,04,12,11,00,12.10
2008,04,12,11,01,12.10
2008,04,12,11,02,12.20
2008,04,12,11,03,12.20
2008,04,12,11,04,12.20
2008,04,12,11,05,12.30
2008,04,12,11,06,12.30
2008,04,12,11,07,12.40
2008,04,12,11,08,12.50
2008,04,12,11,09,12.50
2008,04,12,11,10,12.60
2008,04,12,11,11,12.60
2008,04,12,11,12,12.70
2008,04,12,11,13,12.70
2008,04,12,11,14,12.70
2008,04,12,11,15,12.70
2008,04,12,11,16,12.80
2008,04,12,11,17,12.80
2008,04,12,11,18,12.80
2008,04,12,11,19,12.90
2008,04,12,11,20,12.90
2008,04,12,11,21,12.90
2008,04,12,11,22,12.90
2008,04,12,11,23,13.00
2008,04,12,11,24,13.00
2008,04,12,11,25,13.10
2008,04,12,11,26,13.10
2008,04,12,11,27,13.20
2008,04,12,11,28,13.30
2008,04,12,11,29,13.30
2008,04,12,11,30,13.40
2008,04,12,11,31,13.50
2008,04,12,11,32,13.60
2008,04,12,11,33,13.70
2008,04,12,11,34,13.80
2008,04,12,11,35,13.80
2008,04,12,11,36,13.80
2008,04,12,11,37,13.90
2008,04,12,11,38,13.90
2008,04,12,11,39,13.90
2008,04,12,11,40,13.90
2008,04,12,11,41,13.80
2008,04,12,11,42,13.80
2008,04,12,11,43,13.80
2008,04,12,11,44,13.80
2008,04,12,11,45,13.80
2008,04,12,11,46,13.80
2008,04,12,11,47,13.80
2008,04,12,11,48,13.80
2008,04,12,11,49,13.80
2008,04,12,11,50,13.80
2008,04,12,11,51,13.90
2008,04,12,11,52,13.90
2008,04,12,11,53,14.00
2008,04,12,11,54,14.00
2008,04,12,11,55,14.10
2008,04,12,11,56,14.10
2008,04,12,11,57,14.10
2008,04,12,11,58,14.20
2008,04,12,11,59,14.20
2008,04,12,12,00,14.20
2008,04,12,12,01,14.20
2008,04,12,12,02,14.20
2008,04,12,12,03,14.30
2008,04,12,12,04,14.30
2008,04,12,12,05,14.30
2008,04,12,12,06,14.40
2008,04,12,12,07,14.40
2008,04,12,12,08,14.40
2008,04,12,12,09,14.40
2008,04,12,12,10,14.50
2008,04,12,12,11,14.50
2008,04,12,12,12,14.60
2008,04,12,12,13,14.60
2008,04,12,12,14,14.60
2008,04,12,12,15,14.50
2008,04,12,12,16,14.50
2008,04,12,12,17,14.50
2008,04,12,12,18,14.50
2008,04,12,12,19,14.50
2008,04,12,12,20,14.40
2008,04,12,12,21,14.40
2008,04,12,12,22,14.40
2008,04,12,12,23,14.30
2008,04,12,12,24,14.30
2008,04,12,12,25,14.30
2008,04,12,12,26,14.30
2008,04,12,12,27,14.30
2008,04,12,12,28,14.40
2008,04,12,12,29,14.40
2008,04,12,12,30,14.40
2008,04,12,12,31,14.40
2008,04,12,12,32,14.50
2008,04,12,12,33,14.60
2008,04,12,12,34,14.60
2008,04,12,12,35,14.60
2008,04,12,12,36,14.70
2008,04,12,12,37,14.70
2008,04,12,12,38,14.70
2008,04,12,12,39,14.70
2008,04,12,12,40,14.80
2008,04,12,12,41,14.80
2008,04,12,12,42,14.80
2008,04,12,12,43,14.90
2008,04,12,12,44,14.90
2008,04,12,12,45,15.00
2008,04,12,12,46,15.00
2008,04,12,12,47,15.00
2008,04,12,12,48,15.00
2008,04,12,12,49,15.00
2008,04,12,12,50,15.00
2008,04,12,12,51,15.00
2008,04,12,12,52,15.00
2008,04,12,12,53,15.00
2008,04,12,12,54,15.00
2008,04,12,12,55,15.00
2008,04,12,12,56,15.00
2008,04,12,12,57,15.00
2008,04,12,12,58,15.00
2008,04,12,12,59,15.00
2008,04,12,13,00,15.00
2008,04,12,13,01,14.90
2008,04,12,13,02,14.90
2008,04,12,13,03,14.90
2008,04,12,13,04,14.90
2008,04,12,13,05,14.90
2008,04,12,13,06,14.90
2008,04,12,13,07,15.00
2008,04,12,13,08,15.00
2008,04,12,13,09,15.00
2008,04,12,13,10,15.00
2008,04,12,13,11,15.00
2008,04,12,13,12,15.00
2008,04,12,13,13,15.00
2008,04,12,13,14,15.00
2008,04,12,13,15,15.10
2008,04,12,13,16,15.10
2008,04,12,13,17,15.20
2008,04,12,13,18,15.20
2008,04,12,13,19,15.20
2008,04,12,13,20,15.20
2008,04,12,13,21,15.20
2008,04,12,13,22,15.20
2008,04,12,13,23,15.20
2008,04,12,13,24,15.20
2008,04,12,13,25,15.30
2008,04,12,13,26,15.30
2008,04,12,13,27,15.30
2008,04,12,13,28,15.30
2008,04,12,13,29,15.40
2008,04,12,13,30,15.50
2008,04,12,13,31,15.60
2008,04,12,13,32,15.70
2008,04,12,13,33,15.70
2008,04,12,13,34,15.80
2008,04,12,13,35,15.80
2008,04,12,13,36,15.90
2008,04,12,13,37,16.00
2008,04,12,13,38,16.10
2008,04,12,13,39,16.10
2008,04,12,13,40,16.10
2008,04,12,13,41,16.10
2008,04,12,13,42,16.10
2008,04,12,13,43,16.10
2008,04,12,13,44,16.10
2008,04,12,13,45,16.10
2008,04,12,13,46,16.10
2008,04,12,13,47,16.10
2008,04,12,13,48,16.20
2008,04,12,13,49,16.20
2008,04,12,13,50,16.30
2008,04,12,13,51,16.30
2008,04,12,13,52,16.30
2008,04,12,13,53,16.30
2008,04,12,13,54,16.30
2008,04,12,13,55,16.30
2008,04,12,13,56,16.20
2008,04,12,13,57,16.20
2008,04,12,13,58,16.20
2008,04,12,13,59,16.20
2008,04,12,14,00,16.10
2008,04,12,14,01,16.00
2008,04,12,14,02,16.00
2008,04,12,14,03,16.00
2008,04,12,14,04,16.10
2008,04,12,14,05,16.10
2008,04,12,14,06,16.20
2008,04,12,14,07,16.30
2008,04,12,14,08,16.30
2008,04,12,14,09,16.40
2008,04,12,14,10,16.50
2008,04,12,14,11,16.60
2008,04,12,14,12,16.70
2008,04,12,14,13,16.80
2008,04,12,14,14,16.90
2008,04,12,14,15,16.80
2008,04,12,14,16,16.80
2008,04,12,14,17,16.70
2008,04,12,14,18,16.60
2008,04,12,14,19,16.60
2008,04,12,14,20,16.60
2008,04,12,14,21,16.60
2008,04,12,14,22,16.60
2008,04,12,14,23,16.60
2008,04,12,14,24,16.60
2008,04,12,14,25,16.70
2008,04,12,14,26,16.70
2008,04,12,14,27,16.80
2008,04,12,14,28,16.80
2008,04,12,14,29,16.90
2008,04,12,14,30,17.00
2008,04,12,14,31,17.10
2008,04,12,14,32,17.20
2008,04,12,14,33,17.20
2008,04,12,14,34,17.30
2008,04,12,14,35,17.30
2008,04,12,14,36,17.40
2008,04,12,14,37,17.40
2008,04,12,14,38,17.40
2008,04,12,14,39,17.50
2008,04,12,14,40,17.50
2008,04,12,14,41,17.50
2008,04,12,14,42,17.60
2008,04,12,14,43,17.70
2008,04,12,14,44,17.70
2008,04,12,14,45,17.60
2008,04,12,14,46,17.60
2008,04,12,14,47,17.50
2008,04,12,14,48,17.40
2008,04,12,14,49,17.40
2008,04,12,14,50,17.40
2008,04,12,14,51,17.40
2008,04,12,14,52,17.40
2008,04,12,14,53,17.40
2008,04,12,14,54,17.40
2008,04,12,14,55,17.40
2008,04,12,14,56,17.40
2008,04,12,14,57,17.50
2008,04,12,14,58,17.40
2008,04,12,14,59,17.40
2008,04,12,15,00,17.50
2008,04,12,15,01,17.50
2008,04,12,15,02,17.60
2008,04,12,15,03,17.60
2008,04,12,15,04,17.70
2008,04,12,15,05,17.70
2008,04,12,15,06,17.70
2008,04,12,15,07,17.70
2008,04,12,15,08,17.70
2008,04,12,15,09,17.70
2008,04,12,15,10,17.70
2008,04,12,15,11,17.70
2008,04,12,15,12,17.70
2008,04,12,15,13,17.70
2008,04,12,15,14,17.80
2008,04,12,15,15,17.80
2008,04,12,15,16,17.90
2008,04,12,15,17,17.90
2008,04,12,15,18,18.00
2008,04,12,15,19,18.10
2008,04,12,15,20,18.10
2008,04,12,15,21,18.20
2008,04,12,15,22,18.20
2008,04,12,15,23,18.20
2008,04,12,15,24,18.20
2008,04,12,15,25,18.20
2008,04,12,15,26,18.30
2008,04,12,15,27,18.30
2008,04,12,15,28,18.30
2008,04,12,15,29,18.30
2008,04,12,15,30,18.40
2008,04,12,15,31,18.40
2008,04,12,15,32,18.40
2008,04,12,15,33,18.40
2008,04,12,15,34,18.40
2008,04,12,15,35,18.40
2008,04,12,15,36,18.40
2008,04,12,15,37,18.40
2008,04,12,15,38,18.40
2008,04,12,15,39,18.30
2008,04,12,15,40,18.40
2008,04,12,15,41,18.30
2008,04,12,15,42,18.30
2008,04,12,15,43,18.30
2008,04,12,15,44,18.30
2008,04,12,15,45,18.30
2008,04,12,15,46,18.30
2008,04,12,15,47,18.30
2008,04,12,15,48,18.40
2008,04,12,15,49,18.40
2008,04,12,15,50,18.40
2008,04,12,15,51,18.30
2008,04,12,15,52,18.40
2008,04,12,15,53,18.40
2008,04,12,15,54,18.40
2008,04,12,15,55,18.40
2008,04,12,15,56,18.40
2008,04,12,15,57,18.40
2008,04,12,15,58,18.40
2008,04,12,15,59,18.40
2008,04,12,16,00,18.40
2008,04,12,16,01,18.30
2008,04,12,16,02,18.30
2008,04,12,16,03,18.30
2008,04,12,16,04,18.30
2008,04,12,16,05,18.30
2008,04,12,16,06,18.30
2008,04,12,16,07,18.30
2008,04,12,16,08,18.30
2008,04,12,16,09,18.40
2008,04,12,16,10,18.30
2008,04,12,16,11,18.30
2008,04,12,16,12,18.30
2008,04,12,16,13,18.30
2008,04,12,16,14,18.30
2008,04,12,16,15,18.30
2008,04,12,16,16,18.30
2008,04,12,16,17,18.30
2008,04,12,16,18,18.40
2008,04,12,16,19,18.40
2008,04,12,16,20,18.40
2008,04,12,16,21,18.40
2008,04,12,16,22,18.40
2008,04,12,16,23,18.50
2008,04,12,16,24,18.50
2008,04,12,16,25,18.50
2008,04,12,16,26,18.50
2008,04,12,16,27,18.50
2008,04,12,16,28,18.50
2008,04,12,16,29,18.50
2008,04,12,16,30,18.60
2008,04,12,16,31,18.50
2008,04,12,16,32,18.50
2008,04,12,16,33,18.50
2008,04,12,16,34,18.50
2008,04,12,16,35,18.50
2008,04,12,16,36,18.50
2008,04,12,16,37,18.50
2008,04,12,16,38,18.50
2008,04,12,16,39,18.50
2008,04,12,16,40,18.40
2008,04,12,16,41,18.40
2008,04,12,16,42,18.40
2008,04,12,16,43,18.40
2008,04,12,16,44,18.30
2008,04,12,16,45,18.30
2008,04,12,16,46,18.30
2008,04,12,16,47,18.30
2008,04,12,16,48,18.30
2008,04,12,16,49,18.20
2008,04,12,16,50,18.20
2008,04,12,16,51,18.20
2008,04,12,16,52,18.20
2008,04,12,16,53,18.10
2008,04,12,16,54,18.10
2008,04,12,16,55,18.10
2008,04,12,16,56,18.10
2008,04,12,16,57,18.00
2008,04,12,16,58,18.00
2008,04,12,16,59,18.00
2008,04,12,17,00,18.00
2008,04,12,17,01,17.90
2008,04,12,17,02,17.90
2008,04,12,17,03,17.80
2008,04,12,17,04,17.80
2008,04,12,17,05,17.80
2008,04,12,17,06,17.70
2008,04,12,17,07,17.70
2008,04,12,17,08,17.70
2008,04,12,17,09,17.70
2008,04,12,17,10,17.60
2008,04,12,17,11,17.60
2008,04,12,17,12,17.50
2008,04,12,17,13,17.40
2008,04,12,17,14,17.40
2008,04,12,17,15,17.30
2008,04,12,17,16,17.30
2008,04,12,17,17,17.20
2008,04,12,17,18,17.20
2008,04,12,17,19,17.20
2008,04,12,17,20,17.20
2008,04,12,17,21,17.20
2008,04,12,17,22,17.20
2008,04,12,17,23,17.10
2008,04,12,17,24,17.10
2008,04,12,17,25,17.10
2008,04,12,17,26,17.10
2008,04,12,17,27,17.10
2008,04,12,17,28,17.10
2008,04,12,17,29,17.10
2008,04,12,17,30,17.10
2008,04,12,17,31,17.00
2008,04,12,17,32,17.00
2008,04,12,17,33,17.00
2008,04,12,17,34,17.00
2008,04,12,17,35,17.00
2008,04,12,17,36,17.00
2008,04,12,17,37,17.00
2008,04,12,17,38,17.00
2008,04,12,17,39,17.00
2008,04,12,17,40,17.00
2008,04,12,17,41,17.00